Estación de Galvarino

Ultimos registro cada 15 minutos 65
Estación Fecha / Hora Temperatura Humedad Lluvia Velocidad Dirección Radiación Presion
65 Galvarino 02-05-2026 16:00 13,7 56,9 0 1,5 347 325,6 992,4
64 Galvarino 02-05-2026 15:45 13,7 54,5 0 1 7 363,1 992,3
63 Galvarino 02-05-2026 15:30 14,3 54,4 0 0,5 7 396,9 992,3
62 Galvarino 02-05-2026 15:15 14,3 54,4 0 0,5 354 430,6 992,2
61 Galvarino 02-05-2026 15:00 13,9 58,2 0 1 343 456,9 992,3
60 Galvarino 02-05-2026 14:45 13,5 56,8 0 1 348 484,4 992,3
59 Galvarino 02-05-2026 14:30 13,8 55,8 0 0,5 358 518,1 992,6
58 Galvarino 02-05-2026 14:15 13,6 55,8 0 0,5 1 531,9 992,8
57 Galvarino 02-05-2026 14:00 12,6 62,2 0 1 355 545,6 993
56 Galvarino 02-05-2026 13:45 12,5 62,1 0 0,5 345 560,6 993,3
55 Galvarino 02-05-2026 13:30 11,9 60,4 0 1 345 573,1 993,4
54 Galvarino 02-05-2026 13:15 11,4 61,5 0 1 357 579,4 993,7
53 Galvarino 02-05-2026 13:00 10,9 63,1 0 1 344 583,1 994
52 Galvarino 02-05-2026 12:45 10,5 66,3 0 1 344 586,9 994,4
51 Galvarino 02-05-2026 12:30 10 70,5 0 0 303 583,1 994,7
50 Galvarino 02-05-2026 12:15 9,2 71,4 0 0,5 337 576,9 994,9
49 Galvarino 02-05-2026 12:00 8,8 72,3 0 0,5 334 569,4 995,3
48 Galvarino 02-05-2026 11:45 8,2 73,6 0 0,5 352 49,4 995,4
47 Galvarino 02-05-2026 11:30 8 74,3 0 1 3 79,4 995,7
46 Galvarino 02-05-2026 11:15 7,7 75,5 0 1 345 118,1 995,5
45 Galvarino 02-05-2026 11:00 7,2 77,4 0 1 0 506,9 996
44 Galvarino 02-05-2026 10:45 6,6 80,5 0 1 348 40,6 996,1
43 Galvarino 02-05-2026 10:30 6 83,4 0 1 354 38,1 996,4
42 Galvarino 02-05-2026 10:15 5,1 97,6 0 0 350 35,6 996,8
41 Galvarino 02-05-2026 10:00 4,1 98,9 0 0 355 49,4 996,6
40 Galvarino 02-05-2026 09:45 3,7 99,3 0 0 0 58,1 996,9
39 Galvarino 02-05-2026 09:30 3,3 99,4 0 0 350 56,9 997,1
38 Galvarino 02-05-2026 09:15 2,9 99,4 0 0 352 35,6 997,2
37 Galvarino 02-05-2026 09:00 2,2 99,3 0 0 352 48,1 997,1
36 Galvarino 02-05-2026 08:45 1,9 99,4 0 0 352 65,6 997,1
35 Galvarino 02-05-2026 08:30 1,9 99,3 0 0 351 50,6 997,3
34 Galvarino 02-05-2026 08:15 1,9 99,2 0 0 343 39,4 997,2
33 Galvarino 02-05-2026 08:00 1,8 99,1 0 0 351 15,6 997,4
32 Galvarino 02-05-2026 07:45 2,4 99,1 0 0 357 6,9 997,2
31 Galvarino 02-05-2026 07:30 2,4 99,1 0 0 357 1,9 997,5
30 Galvarino 02-05-2026 07:15 2,4 99,1 0 0 14 0,6 997,5
29 Galvarino 02-05-2026 07:00 2,4 99,1 0 0 15 0,6 997,7
28 Galvarino 02-05-2026 06:45 2,3 99 0 0 0 0,6 997,5
27 Galvarino 02-05-2026 06:30 2,2 99 0 0 348 0,6 997,5
26 Galvarino 02-05-2026 06:15 2 99,1 0 0 340 0,6 997,6
25 Galvarino 02-05-2026 06:00 1,6 99,1 0 0 338 0,6 997,5
24 Galvarino 02-05-2026 05:45 1,5 98,4 0 0 338 0,6 997,8
23 Galvarino 02-05-2026 05:30 1,5 98,2 0 0 338 0,6 997,9
22 Galvarino 02-05-2026 05:15 1,2 98,1 0 0 338 0,6 998,1
21 Galvarino 02-05-2026 05:00 1,6 98,1 0 0 338 0,6 998,1
20 Galvarino 02-05-2026 04:45 0,6 97,9 0 0 338 0,6 998,4
19 Galvarino 02-05-2026 04:30 1,9 97,8 0 0 338 0,6 998,4
18 Galvarino 02-05-2026 04:15 2,2 98 0 0 338 0,6 998,7
17 Galvarino 02-05-2026 04:00 1,9 97,8 0 0 338 0,6 999
16 Galvarino 02-05-2026 03:45 0,4 97,2 0 0 338 0,6 998,9
15 Galvarino 02-05-2026 03:30 0,8 97,8 0 0 338 0,6 999,3
14 Galvarino 02-05-2026 03:15 2 94,5 0 0 338 0,6 999,5
13 Galvarino 02-05-2026 03:00 1,9 96,8 0 0 338 0,6 999,9
12 Galvarino 02-05-2026 02:45 1,1 96,7 0 0 338 0,6 1000
11 Galvarino 02-05-2026 02:30 1,6 96,7 0 0 341 0,6 1000,2
10 Galvarino 02-05-2026 02:15 1,6 95,8 0 0 343 0,6 1000,3
9 Galvarino 02-05-2026 02:00 1,9 94,9 0 0 343 0,6 1000,4
8 Galvarino 02-05-2026 01:45 2,8 95 0 0 343 0,6 1000,8
7 Galvarino 02-05-2026 01:30 3,6 94,7 0 0 343 0,6 1001
6 Galvarino 02-05-2026 01:15 3,3 94,5 0 0 343 0,6 1001
5 Galvarino 02-05-2026 01:00 3,2 94,3 0 0 343 0,6 1001,3
4 Galvarino 02-05-2026 00:45 3,5 94,5 0 0 343 0,6 1001,4
3 Galvarino 02-05-2026 00:30 3,1 94 0 0 343 0,6 1001,5
2 Galvarino 02-05-2026 00:15 3,7 94,5 0 0 336 0,6 1001,5
1 Galvarino 02-05-2026 00:00 3,2 93,1 0 0 329 0,6 1001,5